Regional Weather Roundup
Issued by NWS Wakefield, VA

Home | Current Version | Previous Version | Graphics & Text | Print | Product List | Glossary On
Versions: 1 2 3 4 5 6 7 8 9 10 11 12 13 14 15 16 17 18 19 20 21 22 23 24 25 26 27 28 29 30 31 32 33 34 35 36 37 38 39 40 41 42 43 44 45 46 47 48 49 50
000
ASUS41 KAKQ 271815
RWRAKQ

REGIONAL WEATHER ROUNDUP
NATIONAL WEATHER SERVICE WAKEFIELD VA
200 PM EDT MON MAR 27 2017

Note: "fair" indicates few or no clouds below 12,000 feet with no
significant weather and/or obstructions to visibility. * = Denotes
station may not report precipitation (e.g., rain,snow,etc.),
thunder or fog.

VAZ042-051-052>054-056-271900-
NORTHERN VIRGINIA

CITY           SKY/WX    TMP DP  RH WIND       PRES   REMARKS
WASH NATIONAL  MOSUNNY   64  56  75 S8        30.02F
DULLES         MOSUNNY   67  55  65 S7        30.01F
FORT BELVOIR   SUNNY     69  56  63 VRB3      30.01F
QUANTICO       PTSUNNY   62  57  83 SE6       30.01F
FREDERICKSBRG* SUNNY     74  59  58 S14       30.00F
STAFFORD*      SUNNY     74  57  56 SW9       30.04F
WARRENTON      SUNNY     75  55  49 S8        30.00F
CULPEPER*      SUNNY     73  59  60 SW14      30.00F
MANASSAS*        N/A    N/A N/A N/A S9        30.00F
LEESBURG*      SUNNY     63  59  88 NE3       30.03F
WINCHESTER     MOSUNNY   61  54  77 NE5       30.00F
FRONT ROYAL*   CLOUDY    70  55  60 E6        29.97F
LURAY*         MOCLDY    73  54  49 SW12G20   29.98F
$$

VAZ048-049-060>072-079>083-271900-
CENTRAL AND SOUTH CENTRAL VIRGINIA

CITY           SKY/WX    TMP DP  RH WIND       PRES   REMARKS
RICHMOND       PTSUNNY   76  58  53 SW16G24   30.04F
CHESTERFIELD*  CLOUDY   N/A N/A N/A SW10      30.06F
PETERSBURG*    CLOUDY    73  55  53 SW9       30.06F
HANOVER        MOSUNNY   75  56  51 S13       30.04F
TAPPAHANNOCK*  MOSUNNY   74  52  44 SW9G17    30.04F
QUINTON*       MOCLDY    73  58  59 S8        30.04F
CHARLOTTSVILLE MOSUNNY   74  58  57 S14       30.01F
GORDONSVILLE*  CLEAR     73  60  63 SW10G18   30.00F
ORANGE*        SUNNY     72  57  60 S9G20     30.02F
LOUISA*        PTSUNNY   77  63  61 SW9       30.01F
BUMPASS*       FAIR      74  59  59 S10       30.02F
FARMVILLE*     MOSUNNY   75  60  58 SW9       30.02F
CREWE*         MOCLDY    73  59  62 W5        30.04F
FORT PICKETT*  CLOUDY    73  52  47 W9        30.05F
CHASE CITY*    CLOUDY    73  55  54 SW9       30.06F
CLARKSVILLE*   CLOUDY    72  59  64 SW8       30.06F
SOUTH HILL*    CLOUDY    72  60  64 SW12      30.12F
LAWRENCEVILLE* FAIR      74  57  55 MISG      30.06F
EMPORIA*       PTSUNNY   73  55  53 S14G20    30.08F
$$

VAZ088>098-271900-
SOUTHEAST VIRGINIA

CITY           SKY/WX    TMP DP  RH WIND       PRES   REMARKS
NORFOLK        PTSUNNY   76  55  48 SW17      30.06F
VIRGINIA BEACH PTSUNNY   76  53  44 SW15G21   30.06F
NORFOLK NAVAL  CLOUDY    75  54  47 SW12      30.07F
WEST POINT*    MOSUNNY   74  55  50 SW10G18   30.06F
SALUDA*        MOCLDY    74  58  58 SW9G20    30.04F
NEWPORT NEWS   CLOUDY    74  57  55 SW15      30.06F
LANGLEY AFB    CLOUDY    73  57  57 SW14      30.06F
FORT EUSTIS    PTSUNNY   73  58  58 SW9       30.04F
WILLIAMSBURG*  MOSUNNY   77  57  50 SW8G21    30.06F
HR EXEC AP*    CLOUDY    73  55  53 SW12G18   30.05F
FRANKLIN*      CLOUDY    73  56  55 S12G17    30.08F
US460-WAKEFLD  PTSUNNY   74  56  53 SW14G21   30.06F
$$

VAZ020-022-025-037-045-271900-
WEST CENTRAL AND SOUTHWEST VIRGINIA

CITY           SKY/WX    TMP DP  RH WIND       PRES   REMARKS
STAUNTON*      CLOUDY    72  53  50 SW14G20   30.02F
WAYNESBORO*    PTCLDY    73  55  52 SW7       30.02F
HOT SPRINGS VA PTSUNNY   63  39  42 W18G25    30.08F
LYNCHBURG      MOSUNNY   71  58  63 S13       30.04F
DANVILLE       CLOUDY    72  59  63 SW9       30.05F
SOUTH BOSTON*  MOCLDY    74  57  55 SW9G16    30.05F
MARTINSVILLE   PTSUNNY   71  57  61 S7        30.07F
ROANOKE        MOSUNNY   77  52  41 SW9G20    30.02F
BLACKSBURG     SUNNY     74  48  38 SW14G21   30.06F
DUBLIN*        MOSUNNY   73  49  41 W9        30.05F
MARION*        PTSUNNY   71  48  45 SW13G18   30.09F
HILLSVILLE*    CLOUDY    68  50  52 SW12      30.07F
RICHLANDS*     FAIR      67  53  61 SW10G17   30.06F
WISE*          CLOUDY    70  50  49 SW10G20   30.06F
ABINGDON*      MOSUNNY   73  54  51 SW9       30.05F
$$

MDZ021>025-VAZ099-100-271900-
SOUTHERN MARYLAND AND THE DELMARVA PENINSULA

CITY           SKY/WX    TMP DP  RH WIND       PRES   REMARKS
PATUXENT RIVER PTSUNNY   73  59  61 S18G24    30.02F
BAY BRIDGE APT CLOUDY    57  52  82 N6        30.03F HAZE
LEONARDTOWN    SUNNY     72  55  56 SW12G17   30.03F
DOVER          PTSUNNY   68  66  94 W12       30.01F
GEORGETOWN     CLOUDY    73  56  54 W15G22    30.03F
EASTON         PTSUNNY   70  55  60 SW12      30.06F
CAMBRIDGE      SUNNY     70  57  64 SW9G17    30.02F
SALISBURY      CLOUDY    72  58  61 SW15G22   30.04F
OCEAN CITY     CLOUDY    69  54  58 SW15G22   30.05F
WALLOPS ISLAND PTSUNNY   64  54  69 S14       30.07F
ACCOMACK*      PTSUNNY   73  57  57 SW15G22   30.06F
$$

NCZ012>017-030>032-271900-
NORTH CENTRAL AND EASTERN NORTH CAROLINA

CITY           SKY/WX    TMP DP  RH WIND       PRES   REMARKS
ROANOKE RAPIDS MOCLDY    72  59  64 SW14G20   30.09F
RALEIGH        PTSUNNY   74  58  57 SW14      30.08F
ELIZABETH CITY MOSUNNY   77  54  44 S12       30.09F
AHOSKIE*         N/A     72  56  57 S7        30.10F
EDENTON*       CLOUDY    77  56  48 S9        30.10F
CURRITUCK*     PTSUNNY   75  54  46 S7G18     30.10F
KILL DEVIL HLS NOT AVBL
MANTEO         CLOUDY    67  56  66 S12       30.12F
CAPE HATTERAS  SUNNY     74  55  51 S12       30.13F
TARBORO*       NOT AVBL
GOLDSBORO      CLOUDY    75  57  53 SW12      30.09F
WASHINGTON     MOSUNNY   75  54  49 S7        30.11F
GREENVILLE     CLOUDY    75  54  46 SW10      30.12F
NEW BERN       PTSUNNY   77  52  41 SW5       30.11F
WILMINGTON     CLOUDY    75  54  47 S9        30.11F
$$

VAZ048-271900-
ELSEWHERE

CITY           SKY/WX    TMP DP  RH WIND       PRES   REMARKS
HARRISBURG PA  CLOUDY    48  47  96 W3        30.02F FOG
BALTIMORE      PTSUNNY   62  55  77 VRB3      30.02F
ANNAPOLIS      MOSUNNY   56  52  86 SE9       30.03F
ANDREWS AFB    SUNNY     67  56  67 SW7       30.01F
PHILADELPHIA   CLOUDY    54  50  86 SW9       30.04F
HENDERSON NC   PTSUNNY   69  56  63 SW9G18    30.08F
GREENSBORO     PTSUNNY   71  59  65 SW8       30.06F
ROCKY MOUNT    MOSUNNY   74  59  59 S12G23    30.09F
$$

VAZ100-271900-
MARINE

STATION/POSITION TIME  TEMP    WIND        PRES    WAVE   SWELL
                       AIR SEA DIR/SP/G            HT/PER HT/PER
                 (UTC) (F)     (DEG/KT/KT) (MB)    (FT/S) (FT/S)
CAPE MAY NJ      1742   61 45  240/  4/  5 1016.8F
LEWES DE         1748   72 44  250/ 11/ 21 1016.6F
OCEAN-CITY-INLET 1748   52 46  210/ 12/ 16 1018.1F
WACHAPREAGUE VA  1748   65 58  200/  9/ 11 1017.7F
THOMAS POINT MD  1800   52 46   60/  4/  5   N/A
GOOSES REEF MD   1750   52     150/  8/ 10 1017.2F
COVE POINT MD    1748   58     180/ 12/ 15 1017.1F
SOLOMONS ISLAND  1748   66 47  230/ 10/ 16   N/A
BISHOPS HEAD MD  1748   56 52  160/  9/ 11 1017.7F
PINEY POINT MD   1748          240/  9/ 11   N/A
POTOMAC MD       1750   60     220/  8/ 10 1016.2F
CAMBRIDGE MD     1748   69 46  200/ 10/ 14 1015.9F
LEWISETTA VA     1748   69 52  230/ 17/ 19 1016.5F
RAPPAHANNOCK LGT 1748          190/ 16/ 16 1018.5F
STINGRAY PT      1750   61     230/  8/ 10 1018.6F
YORK RVR RNG VA  1748   68     230/ 17/ 20 1017.0F
YORKTOWN VA      1748   71 51  220/ 13/ 17 1017.3F
JAMESTOWN VA     1750   69     240/ 14/ 17   N/A
DOMINION TERM VA 1748   63     230/  8/ 12 1018.2F
KIPTOPEKE VA     1748      49  180/  4/  5   N/A
CHES BAY BRIDGE  1736   70 51  230/ 14/ 16 1018.1F
CAPE HENRY VA    1736   74     230/  8/ 13   N/A
WILLOUBY STN VA  1736   67     240/ 12/ 13 1019.0F
S CRANEY ISL VA  1748   73     200/ 12/ 16 1017.9F
CAPE HENRY BUOY  1742      51                N/A     3/ 6   2/18
CAPE CHARLES BUO 1751      49                N/A     3/ 7
OFFSHORE WE BUOY 1751      51                N/A     4/ 7   2/11
64NM E OF VA BCH 1750   56 51  200/  6/  8 1019.9F   3/10   3/10
DUCK PIER NC     1736   71 49  210/  6/  9 1019.3F
44100 DUCK FRF   1735      52                N/A     4/ 8   2/11
44056 DUCK FRF   1730      55                N/A     3/ 7   2/18
OREGON INLET NC  1748          180/ 10/ 12   N/A
HATTERAS NC      1736   70 60  200/  3/  7 1020.4F
DIAMOND SHLS NC  1750   71 76  200/  8/ 12 1020.6F   4/ 9   3/ 9
CAPE LOOKOUT NC  1700   68     150/  8/  9 1021.0F
$$



USA.gov is the U.S. government's official web portal to all federal, state and local government web resources and services.